FDX693 KLAX-KABQ

Flight info

Callsign FDX693
Flight time 1h 31m
Altitude 35000
Route DOTSS2 CNERY BLH ANGRY PXR BRRTO BRRTO1
Aircraft B77L/H-SDE1E2E3FGHIJ2J3J4J5M1RWXY/LB1D1

Departure

Time 2026-05-07 19:07
Airport Los Angeles International Airport (KLAX)

Arrival

Time 2026-05-07 20:38
Airport Albuquerque International Sunport (KABQ)
Time Latitude Longitude Altitude Speed Heading
2026-05-07 18:51 33.93416 -118.38705 97 ft 0 kts 174°
2026-05-07 19:00 33.93424 -118.38706 97 ft 3 kts 173°
2026-05-07 19:00 33.93435 -118.38707 97 ft 3 kts 171°
2026-05-07 19:00 33.93451 -118.38710 97 ft 2 kts 173°
2026-05-07 19:01 33.93469 -118.38711 96 ft 3 kts 203°
2026-05-07 19:01 33.93478 -118.38705 100 ft 3 kts 238°
2026-05-07 19:01 33.93485 -118.38675 97 ft 3 kts 264°
2026-05-07 19:01 33.93486 -118.38663 97 ft 1 kts 263°
2026-05-07 19:02 33.93486 -118.38662 97 ft 0 kts 263°
2026-05-07 19:03 33.93485 -118.38670 97 ft 2 kts 263°
2026-05-07 19:04 33.93483 -118.38690 106 ft 3 kts 263°
2026-05-07 19:04 33.93480 -118.38723 102 ft 5 kts 263°
2026-05-07 19:04 33.93488 -118.38768 102 ft 6 kts 306°
2026-05-07 19:04 33.93533 -118.38786 98 ft 8 kts
2026-05-07 19:05 33.93564 -118.38731 100 ft 9 kts 76°
2026-05-07 19:05 33.93575 -118.38645 100 ft 11 kts 82°
2026-05-07 19:05 33.93586 -118.38542 98 ft 14 kts 83°
2026-05-07 19:05 33.93598 -118.38423 100 ft 13 kts 83°
2026-05-07 19:06 33.93610 -118.38330 101 ft 12 kts 71°
2026-05-07 19:06 33.93726 -118.38359 102 ft 14 kts 270°
2026-05-07 19:06 33.93702 -118.38602 99 ft 69 kts 263°
2026-05-07 19:07 33.93595 -118.39616 107 ft 171 kts 262°
2026-05-07 19:07 33.93415 -118.41198 784 ft 197 kts 261°
2026-05-07 19:07 33.93238 -118.42913 1809 ft 212 kts 263°
2026-05-07 19:07 33.93061 -118.44743 2496 ft 229 kts 264°
2026-05-07 19:08 33.92775 -118.46721 2893 ft 254 kts 248°
2026-05-07 19:08 33.91651 -118.48410 3573 ft 265 kts 221°
2026-05-07 19:08 33.90269 -118.49902 4461 ft 268 kts 227°
2026-05-07 19:08 33.89060 -118.51609 5525 ft 268 kts 232°
2026-05-07 19:09 33.87889 -118.53386 6463 ft 274 kts 232°
2026-05-07 19:09 33.86610 -118.55107 7195 ft 281 kts 217°
2026-05-07 19:09 33.84808 -118.55969 7909 ft 288 kts 183°
2026-05-07 19:09 33.82827 -118.55688 8758 ft 290 kts 166°
2026-05-07 19:10 33.80827 -118.55122 9536 ft 298 kts 165°
2026-05-07 19:10 33.78803 -118.54555 10478 ft 300 kts 165°
2026-05-07 19:10 33.76717 -118.53979 10979 ft 320 kts 165°
2026-05-07 19:10 33.74449 -118.53358 11176 ft 349 kts 165°
2026-05-07 19:11 33.72033 -118.52594 11342 ft 369 kts 156°
2026-05-07 19:11 33.69889 -118.50838 11837 ft 379 kts 131°
2026-05-07 19:11 33.68464 -118.48177 12615 ft 380 kts 110°
2026-05-07 19:11 33.67597 -118.45168 13359 ft 385 kts 106°
2026-05-07 19:12 33.66741 -118.42096 14179 ft 390 kts 107°
2026-05-07 19:12 33.65861 -118.39053 15018 ft 392 kts 107°
2026-05-07 19:12 33.64947 -118.35952 15848 ft 395 kts 107°
2026-05-07 19:12 33.64304 -118.32763 16500 ft 393 kts 91°
2026-05-07 19:13 33.64313 -118.29468 16956 ft 398 kts 86°
2026-05-07 19:13 33.64384 -118.26120 16975 ft 401 kts 87°
2026-05-07 19:13 33.64428 -118.22775 16983 ft 400 kts 87°
2026-05-07 19:13 33.64452 -118.19443 16979 ft 399 kts 88°
2026-05-07 19:14 33.64463 -118.16114 16972 ft 399 kts 88°
2026-05-07 19:14 33.64466 -118.12779 16981 ft 400 kts 88°
2026-05-07 19:14 33.64466 -118.09442 16981 ft 400 kts 88°
2026-05-07 19:14 33.64463 -118.06103 16979 ft 400 kts 88°
2026-05-07 19:15 33.64459 -118.02768 16979 ft 400 kts 88°
2026-05-07 19:15 33.64454 -117.99421 16983 ft 400 kts 88°
2026-05-07 19:15 33.64449 -117.96131 16988 ft 400 kts 88°
2026-05-07 19:15 33.64443 -117.92793 16986 ft 400 kts 88°
2026-05-07 19:16 33.64436 -117.89458 16986 ft 400 kts 88°
2026-05-07 19:16 33.64429 -117.86119 16988 ft 400 kts 88°
2026-05-07 19:16 33.64420 -117.82787 16984 ft 400 kts 88°
2026-05-07 19:16 33.64369 -117.79442 16975 ft 398 kts 92°
2026-05-07 19:17 33.63809 -117.76185 16993 ft 400 kts 104°
2026-05-07 19:17 33.62970 -117.72992 16978 ft 403 kts 105°
2026-05-07 19:17 33.62112 -117.69774 16981 ft 404 kts 105°
2026-05-07 19:17 33.61278 -117.66595 16983 ft 405 kts 104°
2026-05-07 19:18 33.60451 -117.63362 16983 ft 406 kts 104°
2026-05-07 19:18 33.59636 -117.60124 16976 ft 406 kts 104°
2026-05-07 19:18 33.58827 -117.56876 16976 ft 406 kts 104°
2026-05-07 19:18 33.58021 -117.53624 16969 ft 406 kts 104°
2026-05-07 19:19 33.57218 -117.50384 16968 ft 405 kts 104°
2026-05-07 19:19 33.56415 -117.47143 16980 ft 404 kts 104°
2026-05-07 19:19 33.55612 -117.43904 16976 ft 404 kts 104°
2026-05-07 19:19 33.54809 -117.40673 16968 ft 404 kts 104°
2026-05-07 19:20 33.54005 -117.37441 16972 ft 404 kts 104°
2026-05-07 19:20 33.53201 -117.34216 16974 ft 404 kts 104°
2026-05-07 19:20 33.52396 -117.30987 16969 ft 404 kts 104°
2026-05-07 19:20 33.51590 -117.27758 16969 ft 404 kts 104°
2026-05-07 19:21 33.50785 -117.24535 16967 ft 404 kts 103°
2026-05-07 19:21 33.50270 -117.21304 16957 ft 398 kts 91°
2026-05-07 19:21 33.50216 -117.17998 16954 ft 397 kts 88°
2026-05-07 19:21 33.50228 -117.14684 16971 ft 398 kts 87°
2026-05-07 19:22 33.50240 -117.11361 16962 ft 399 kts 88°
2026-05-07 19:22 33.50237 -117.08036 16957 ft 399 kts 88°
2026-05-07 19:22 33.50217 -117.04707 16948 ft 400 kts 88°
2026-05-07 19:22 33.50183 -117.01361 17368 ft 404 kts 89°
2026-05-07 19:23 33.50141 -116.97988 18236 ft 405 kts 89°
2026-05-07 19:23 33.50094 -116.94601 18958 ft 408 kts 89°
2026-05-07 19:23 33.50044 -116.91168 19588 ft 414 kts 89°
2026-05-07 19:23 33.49991 -116.87710 20236 ft 418 kts 89°
2026-05-07 19:24 33.49936 -116.84209 20912 ft 421 kts 88°
2026-05-07 19:24 33.49881 -116.80720 21546 ft 426 kts 88°
2026-05-07 19:24 33.49824 -116.77146 22148 ft 431 kts 88°
2026-05-07 19:24 33.49766 -116.73531 22729 ft 436 kts 88°
2026-05-07 19:25 33.49706 -116.69881 23334 ft 441 kts 88°
2026-05-07 19:25 33.49643 -116.66171 23876 ft 446 kts 88°
2026-05-07 19:25 33.49579 -116.62448 24410 ft 449 kts 88°
2026-05-07 19:25 33.49513 -116.58702 24984 ft 451 kts 88°
2026-05-07 19:26 33.49446 -116.54934 25549 ft 454 kts 88°
2026-05-07 19:26 33.49378 -116.51184 26088 ft 457 kts 88°
2026-05-07 19:26 33.49309 -116.47359 26610 ft 460 kts 88°
2026-05-07 19:26 33.49237 -116.43515 27151 ft 463 kts 88°
2026-05-07 19:27 33.49168 -116.39632 27607 ft 467 kts 88°
2026-05-07 19:27 33.49108 -116.35718 27992 ft 470 kts 88°
2026-05-07 19:27 33.49051 -116.31780 28505 ft 473 kts 88°
2026-05-07 19:27 33.48998 -116.27828 29010 ft 475 kts 88°
2026-05-07 19:28 33.48941 -116.23903 29481 ft 478 kts 88°
2026-05-07 19:28 33.48879 -116.19923 29984 ft 478 kts 88°
2026-05-07 19:28 33.48815 -116.15949 30496 ft 476 kts 88°
2026-05-07 19:28 33.48749 -116.11994 31061 ft 474 kts 88°
2026-05-07 19:29 33.48683 -116.08063 31618 ft 471 kts 88°
2026-05-07 19:29 33.48668 -116.04151 32116 ft 468 kts 84°
2026-05-07 19:29 33.49260 -116.00364 32519 ft 459 kts 69°
2026-05-07 19:29 33.50385 -115.96783 32827 ft 460 kts 67°
2026-05-07 19:30 33.51523 -115.93197 33317 ft 458 kts 68°
2026-05-07 19:30 33.52623 -115.89632 33976 ft 452 kts 68°
2026-05-07 19:30 33.53674 -115.86129 34340 ft 452 kts 68°
2026-05-07 19:30 33.54731 -115.82545 34542 ft 456 kts 68°
2026-05-07 19:31 33.55781 -115.78943 34794 ft 458 kts 69°
2026-05-07 19:31 33.56836 -115.75316 34877 ft 464 kts 68°
2026-05-07 19:31 33.58955 -115.68012 34944 ft 461 kts 68°
2026-05-07 19:32 33.61057 -115.60766 34967 ft 459 kts 69°
2026-05-07 19:32 33.61861 -115.57041 34945 ft 464 kts 81°
2026-05-07 19:32 33.61878 -115.53175 34982 ft 464 kts 90°
2026-05-07 19:33 33.61555 -115.45457 34958 ft 467 kts 89°
2026-05-07 19:33 33.61298 -115.37656 34965 ft 469 kts 89°
2026-05-07 19:34 33.61090 -115.29810 34970 ft 470 kts 88°
2026-05-07 19:34 33.60893 -115.22002 34956 ft 470 kts 89°
2026-05-07 19:35 33.60686 -115.14165 34950 ft 469 kts 89°
2026-05-07 19:35 33.60472 -115.06354 34955 ft 467 kts 89°
2026-05-07 19:36 33.60254 -114.98567 34973 ft 466 kts 89°
2026-05-07 19:36 33.60033 -114.90826 34967 ft 466 kts 89°
2026-05-07 19:37 33.59807 -114.83038 34973 ft 467 kts 89°
2026-05-07 19:37 33.59573 -114.75248 34973 ft 467 kts 89°
2026-05-07 19:38 33.59076 -114.67448 34976 ft 470 kts 92°
2026-05-07 19:38 33.58427 -114.59692 34971 ft 470 kts 92°
2026-05-07 19:39 33.57791 -114.51886 34968 ft 471 kts 92°
2026-05-07 19:39 33.57183 -114.44054 34959 ft 471 kts 92°
2026-05-07 19:40 33.56582 -114.36221 34962 ft 471 kts 92°
2026-05-07 19:40 33.55976 -114.28404 34954 ft 471 kts 92°
2026-05-07 19:41 33.55369 -114.20593 34949 ft 470 kts 92°
2026-05-07 19:41 33.54760 -114.12845 34950 ft 468 kts 92°
2026-05-07 19:42 33.54143 -114.05079 34972 ft 467 kts 92°
2026-05-07 19:42 33.53522 -113.97323 34956 ft 467 kts 92°
2026-05-07 19:43 33.52898 -113.89585 34955 ft 466 kts 92°
2026-05-07 19:43 33.52270 -113.81853 34947 ft 466 kts 92°
2026-05-07 19:44 33.51641 -113.74170 34965 ft 466 kts 92°
2026-05-07 19:44 33.51003 -113.66444 34947 ft 466 kts 92°
2026-05-07 19:45 33.50361 -113.58723 34949 ft 465 kts 92°
2026-05-07 19:45 33.49712 -113.50994 34953 ft 465 kts 92°
2026-05-07 19:46 33.49061 -113.43277 34941 ft 465 kts 92°
2026-05-07 19:46 33.48409 -113.35618 34945 ft 465 kts 92°
2026-05-07 19:47 33.47748 -113.27896 34949 ft 466 kts 92°
2026-05-07 19:47 33.47081 -113.20168 34936 ft 467 kts 92°
2026-05-07 19:48 33.46408 -113.12427 34939 ft 467 kts 92°
2026-05-07 19:48 33.45729 -113.04681 34946 ft 468 kts 92°
2026-05-07 19:49 33.45049 -112.96974 34945 ft 468 kts 92°
2026-05-07 19:49 33.44359 -112.89215 34949 ft 468 kts 92°
2026-05-07 19:50 33.43665 -112.81465 34960 ft 467 kts 92°
2026-05-07 19:50 33.42971 -112.73758 34968 ft 467 kts 92°
2026-05-07 19:51 33.42271 -112.66045 34962 ft 466 kts 92°
2026-05-07 19:51 33.41566 -112.58332 34962 ft 466 kts 93°
2026-05-07 19:52 33.40976 -112.51923 34954 ft 465 kts 93°
2026-05-07 19:52 33.40264 -112.44226 34963 ft 465 kts 93°
2026-05-07 19:53 33.39552 -112.36574 34959 ft 465 kts 93°
2026-05-07 19:53 33.38833 -112.28894 34950 ft 464 kts 92°
2026-05-07 19:54 33.38806 -112.21225 34944 ft 458 kts 82°
2026-05-07 19:54 33.39838 -112.13729 34965 ft 454 kts 74°
2026-05-07 19:55 33.41380 -112.06446 34972 ft 454 kts 74°
2026-05-07 19:55 33.42885 -111.99094 34961 ft 455 kts 74°
2026-05-07 19:56 33.44803 -111.91880 34969 ft 453 kts 68°
2026-05-07 19:56 33.46985 -111.84858 34968 ft 453 kts 68°
2026-05-07 19:57 33.49177 -111.77765 34966 ft 454 kts 69°
2026-05-07 19:57 33.51354 -111.70646 34967 ft 454 kts 69°
2026-05-07 19:58 33.53519 -111.63518 34969 ft 456 kts 69°
2026-05-07 19:58 33.55675 -111.56404 34951 ft 457 kts 69°
2026-05-07 19:59 33.57840 -111.49238 34895 ft 457 kts 69°
2026-05-07 19:59 33.60009 -111.42048 34902 ft 458 kts 69°
2026-05-07 20:00 33.62172 -111.34857 34916 ft 458 kts 69°
2026-05-07 20:00 33.64332 -111.27661 34915 ft 459 kts 69°
2026-05-07 20:01 33.66495 -111.20439 34920 ft 459 kts 69°
2026-05-07 20:01 33.68629 -111.13291 34919 ft 458 kts 69°
2026-05-07 20:02 33.70782 -111.06068 34929 ft 458 kts 69°
2026-05-07 20:02 33.72930 -110.98841 34932 ft 459 kts 69°
2026-05-07 20:03 33.75070 -110.91625 34931 ft 459 kts 69°
2026-05-07 20:03 33.77214 -110.84376 34940 ft 460 kts 69°
2026-05-07 20:04 33.79339 -110.77175 34932 ft 460 kts 69°
2026-05-07 20:04 33.81481 -110.69895 34944 ft 461 kts 69°
2026-05-07 20:05 33.83617 -110.62620 34944 ft 461 kts 69°
2026-05-07 20:05 33.85755 -110.55319 34951 ft 462 kts 70°
2026-05-07 20:06 33.87874 -110.48065 34942 ft 462 kts 70°
2026-05-07 20:06 33.90005 -110.40751 34951 ft 463 kts 70°
2026-05-07 20:07 33.92137 -110.33414 34965 ft 464 kts 70°
2026-05-07 20:07 33.94265 -110.26074 34972 ft 465 kts 70°
2026-05-07 20:08 33.96395 -110.18708 34994 ft 465 kts 70°
2026-05-07 20:08 33.98507 -110.11385 35022 ft 465 kts 70°
2026-05-07 20:09 34.00632 -110.03999 35069 ft 466 kts 70°
2026-05-07 20:10 34.03818 -109.92888 35095 ft 467 kts 70°
2026-05-07 20:10 34.05924 -109.85520 35093 ft 468 kts 70°
2026-05-07 20:11 34.08046 -109.78078 35067 ft 468 kts 70°
2026-05-07 20:11 34.10167 -109.70623 35047 ft 469 kts 70°
2026-05-07 20:12 34.12270 -109.63204 35075 ft 470 kts 70°
2026-05-07 20:12 34.14385 -109.55724 35123 ft 471 kts 71°
2026-05-07 20:13 34.16499 -109.48231 35169 ft 470 kts 70°
2026-05-07 20:13 34.18605 -109.40744 35206 ft 470 kts 70°
2026-05-07 20:14 34.20706 -109.33260 35222 ft 471 kts 70°
2026-05-07 20:14 34.22807 -109.25755 35207 ft 472 kts 70°
2026-05-07 20:15 34.24894 -109.18274 35160 ft 473 kts 70°
2026-05-07 20:15 34.26995 -109.10728 35110 ft 474 kts 71°
2026-05-07 20:16 34.29097 -109.03156 35057 ft 476 kts 71°
2026-05-07 20:16 34.31203 -108.95548 35000 ft 477 kts 71°
2026-05-07 20:17 34.33308 -108.87924 34984 ft 478 kts 71°
2026-05-07 20:17 34.35401 -108.80320 34986 ft 479 kts 71°
2026-05-07 20:18 34.37503 -108.72666 34980 ft 480 kts 71°
2026-05-07 20:18 34.39620 -108.64937 34323 ft 491 kts 71°
2026-05-07 20:18 34.40689 -108.61025 33701 ft 487 kts 71°
2026-05-07 20:19 34.41741 -108.57168 32689 ft 488 kts 71°
2026-05-07 20:19 34.42801 -108.53278 32051 ft 481 kts 71°
2026-05-07 20:19 34.43842 -108.49448 31474 ft 475 kts 71°
2026-05-07 20:19 34.44869 -108.45667 30899 ft 468 kts 71°
2026-05-07 20:20 34.45882 -108.41933 30354 ft 463 kts 71°
2026-05-07 20:20 34.46883 -108.38239 29775 ft 458 kts 71°
2026-05-07 20:20 34.47860 -108.34629 29175 ft 453 kts 71°
2026-05-07 20:20 34.48849 -108.30973 28611 ft 448 kts 71°
2026-05-07 20:21 34.49800 -108.27451 28085 ft 443 kts 71°
2026-05-07 20:21 34.50754 -108.23910 27547 ft 438 kts 71°
2026-05-07 20:21 34.51694 -108.20418 27027 ft 433 kts 71°
2026-05-07 20:21 34.52622 -108.16965 26517 ft 429 kts 71°
2026-05-07 20:22 34.53545 -108.13528 26019 ft 426 kts 71°
2026-05-07 20:22 34.54457 -108.10128 25514 ft 422 kts 71°
2026-05-07 20:22 34.55362 -108.06749 24956 ft 421 kts 72°
2026-05-07 20:22 34.56266 -108.03370 24382 ft 421 kts 72°
2026-05-07 20:23 34.57135 -108.00118 23885 ft 419 kts 72°
2026-05-07 20:23 34.57984 -107.96936 23382 ft 417 kts 72°
2026-05-07 20:23 34.58823 -107.93785 22858 ft 414 kts 72°
2026-05-07 20:23 34.59670 -107.90604 22466 ft 409 kts 72°
2026-05-07 20:24 34.60502 -107.87478 22346 ft 397 kts 72°
2026-05-07 20:24 34.61351 -107.84284 22156 ft 387 kts 72°
2026-05-07 20:24 34.62167 -107.81215 21996 ft 376 kts 71°
2026-05-07 20:24 34.63129 -107.78290 21599 ft 372 kts 64°
2026-05-07 20:25 34.64306 -107.75511 21215 ft 369 kts 61°
2026-05-07 20:25 34.65539 -107.72790 20816 ft 366 kts 60°
2026-05-07 20:25 34.66766 -107.70092 20423 ft 364 kts 61°
2026-05-07 20:25 34.67959 -107.67431 20034 ft 362 kts 61°
2026-05-07 20:26 34.69142 -107.64747 19641 ft 360 kts 62°
2026-05-07 20:26 34.70325 -107.62031 19244 ft 358 kts 62°
2026-05-07 20:26 34.71461 -107.59401 18861 ft 356 kts 62°
2026-05-07 20:26 34.72607 -107.56736 18468 ft 354 kts 62°
2026-05-07 20:27 34.73744 -107.54084 18020 ft 353 kts 62°
2026-05-07 20:27 34.74873 -107.51444 17609 ft 350 kts 62°
2026-05-07 20:27 34.75993 -107.48826 17198 ft 348 kts 62°
2026-05-07 20:27 34.77101 -107.46232 16815 ft 345 kts 62°
2026-05-07 20:28 34.78205 -107.43645 16431 ft 342 kts 62°
2026-05-07 20:28 34.79297 -107.41086 16052 ft 339 kts 62°
2026-05-07 20:28 34.80378 -107.38549 15673 ft 337 kts 62°
2026-05-07 20:28 34.81452 -107.36029 15300 ft 334 kts 62°
2026-05-07 20:29 34.82518 -107.33527 14931 ft 332 kts 62°
2026-05-07 20:29 34.83576 -107.31038 14558 ft 331 kts 62°
2026-05-07 20:29 34.84638 -107.28540 14200 ft 333 kts 62°
2026-05-07 20:29 34.85680 -107.26045 13824 ft 337 kts 62°
2026-05-07 20:30 34.86735 -107.23487 13403 ft 338 kts 62°
2026-05-07 20:30 34.87776 -107.20964 13099 ft 333 kts 62°
2026-05-07 20:30 34.88803 -107.18477 12955 ft 322 kts 62°
2026-05-07 20:30 34.89793 -107.16078 12791 ft 312 kts 62°
2026-05-07 20:31 34.90779 -107.13730 12447 ft 310 kts 62°
2026-05-07 20:31 34.91767 -107.11417 12117 ft 306 kts 62°
2026-05-07 20:31 34.92746 -107.09130 11770 ft 303 kts 62°
2026-05-07 20:31 34.93712 -107.06866 11432 ft 300 kts 62°
2026-05-07 20:32 34.94673 -107.04606 11122 ft 301 kts 62°
2026-05-07 20:32 34.95639 -107.02332 10778 ft 302 kts 61°
2026-05-07 20:32 34.96579 -107.00053 10436 ft 300 kts 63°
2026-05-07 20:32 34.97488 -106.97777 10111 ft 297 kts 63°
2026-05-07 20:33 34.98374 -106.95548 9960 ft 287 kts 63°
2026-05-07 20:33 34.99246 -106.93357 9769 ft 288 kts 63°
2026-05-07 20:33 35.00126 -106.91151 9409 ft 290 kts 63°
2026-05-07 20:33 35.01003 -106.88951 9073 ft 286 kts 63°
2026-05-07 20:34 35.01868 -106.86786 8934 ft 279 kts 63°
2026-05-07 20:34 35.02685 -106.84737 8819 ft 266 kts 63°
2026-05-07 20:34 35.03473 -106.82761 8627 ft 256 kts 63°
2026-05-07 20:34 35.04216 -106.80813 8285 ft 249 kts 71°
2026-05-07 20:35 35.04493 -106.78753 8003 ft 245 kts 85°
2026-05-07 20:35 35.04536 -106.76682 7719 ft 243 kts 89°
2026-05-07 20:35 35.04516 -106.74652 7439 ft 232 kts 90°
2026-05-07 20:35 35.04498 -106.72751 7112 ft 215 kts 89°
2026-05-07 20:36 35.04487 -106.71012 6871 ft 196 kts 88°
2026-05-07 20:36 35.04479 -106.69425 6633 ft 178 kts 90°
2026-05-07 20:36 35.04470 -106.68002 6444 ft 162 kts 89°
2026-05-07 20:36 35.04461 -106.66620 6220 ft 164 kts 89°
2026-05-07 20:37 35.04453 -106.65217 5989 ft 165 kts 88°
2026-05-07 20:37 35.04444 -106.63826 5714 ft 162 kts 87°
2026-05-07 20:37 35.04440 -106.62917 5562 ft 162 kts 89°
2026-05-07 20:37 35.04429 -106.61550 5351 ft 162 kts 90°
2026-05-07 20:38 35.04424 -106.60265 5334 ft 133 kts 90°
2026-05-07 20:38 35.04418 -106.59364 5329 ft 80 kts 90°
2026-05-07 20:38 35.04397 -106.58918 5337 ft 27 kts 125°
2026-05-07 20:38 35.04328 -106.58829 5340 ft 17 kts 154°
2026-05-07 20:39 35.04229 -106.58834 5338 ft 0 kts 207°